Weather History for KPWK - August, 2013

Change the Weather History Date:

Sunday, August 25, 2013

  Actual Average Record
Temperature  
Mean Temperature 79 °F 71 °F  
Max Temperature 91 °F 81 °F 96 °F (2003)
Min Temperature 66 °F 62 °F 57 °F (1997)
Degree Days  
Heating Degree Days 0 0  
Month to date heating degree days 3 0  
Since 1 June heating degree days 67 56  
Since 1 July heating degree days 10 4  
Cooling Degree Days 14 7  
Month to date cooling degree days 165 196  
Year to date cooling degree days 669 661  
Since 1 June cooling degree days 588 619  
Growing Degree Days 28 (Base 50)    
Moisture  
Dew Point 61 °F    
Average Humidity 55    
Maximum Humidity 65    
Minimum Humidity 45    
Precipitation  
Precipitation 0.00 in 0.11 in 0.83 in (2001)
Month to date precipitation 0.99 3.02  
Year to date precipitation 20.49 21.84  
Sea Level Pressure  
Sea Level Pressure 30.20 in    
Wind  
Wind Speed 8 mph (SW)    
Max Wind Speed 16 mph    
Max Gust Speed 22 mph    
Visibility 10 miles    
Events      
T = Trace of Precipitation, MM = Missing Value Source: NWS Daily Summary

Daily Weather History Graph

Daily Weather History Graph

Search for Another Location

Airport or City:

Trip Planner

Search our weather history database for the weather conditions in past years. The results will help you decide how hot, cold, wet, or windy it might be!

Date:

Astronomy

Aug. 25, 2013 Rise Set
Actual Time 6:10 AM CDT 7:36 PM CDT
Civil Twilight 5:40 AM CDT 8:05 PM CDT
Nautical Twilight 5:05 AM CDT 8:40 PM CDT
Astronomical Twilight 4:28 AM CDT 9:17 PM CDT
Moon 10:00 PM CDT (8/25) 11:18 AM CDT (8/25)
Length of Visible Light 14h 24m
Length of Day
13h 26m
Waning Gibbous, 75% of the Moon is Illuminated
Aug 25
Waning Gibbous
Aug 28
Last Quarter
Sep 5
New
Sep 12
First Quarter
Sep 19
Full

Hourly Weather History & Observations

Time (CDT) Temp. Heat Index Dew Point Humidity Pressure Visibility Wind Dir Wind Speed Gust Speed Precip Events Conditions
12:52 AM 69.1 °F - 55.0 °F 61% 30.23 in 10.0 mi SSE 3.5 mph - N/A   Clear
1:52 AM 68.0 °F - 55.0 °F 63% 30.23 in 10.0 mi South 5.8 mph - N/A   Clear
2:52 AM 68.0 °F - 55.0 °F 63% 30.23 in 10.0 mi Calm Calm - N/A   Clear
3:52 AM 66.9 °F - 54.0 °F 63% 30.23 in 10.0 mi South 4.6 mph - N/A   Clear
4:52 AM 66.0 °F - 54.0 °F 65% 30.23 in 10.0 mi South 4.6 mph - N/A   Clear
5:52 AM 66.0 °F - 53.1 °F 63% 30.24 in 10.0 mi Calm Calm - N/A   Clear
6:52 AM 70.0 °F - 54.0 °F 57% 30.25 in 10.0 mi SSW 5.8 mph - N/A   Clear
7:52 AM 72.0 °F - 55.9 °F 57% 30.26 in 10.0 mi SSW 4.6 mph - N/A   Clear
8:52 AM 77.0 °F - 57.9 °F 52% 30.26 in 10.0 mi SSW 8.1 mph - N/A   Clear
9:52 AM 81.0 °F 81.6 °F 60.1 °F 49% 30.25 in 10.0 mi WSW 10.4 mph 16.1 mph N/A   Clear
10:52 AM 84.9 °F 85.9 °F 63.0 °F 48% 30.24 in 10.0 mi WSW 9.2 mph - N/A   Clear
11:52 AM 86.0 °F 87.3 °F 64.0 °F 48% 30.23 in 10.0 mi WSW 10.4 mph 19.6 mph N/A   Clear
12:52 PM 88.0 °F 89.6 °F 64.9 °F 46% 30.21 in 10.0 mi SW 11.5 mph - N/A   Clear
1:52 PM 89.1 °F 91.3 °F 66.0 °F 46% 30.20 in 10.0 mi WSW 8.1 mph 17.3 mph N/A   Clear
2:52 PM 90.0 °F 92.4 °F 66.0 °F 45% 30.18 in 10.0 mi WSW 9.2 mph 19.6 mph N/A   Clear
3:52 PM 90.0 °F 92.4 °F 66.0 °F 45% 30.17 in 10.0 mi WSW 10.4 mph 18.4 mph N/A   Clear
4:52 PM 89.1 °F 92.1 °F 66.9 °F 48% 30.15 in 10.0 mi SW 9.2 mph - N/A   Clear
5:52 PM 88.0 °F 90.7 °F 66.9 °F 49% 30.15 in 10.0 mi SSW 15.0 mph 20.7 mph N/A   Clear
6:52 PM 86.0 °F 88.8 °F 66.9 °F 53% 30.14 in 10.0 mi SSW 9.2 mph - N/A   Clear
7:52 PM 82.9 °F 85.0 °F 66.0 °F 56% 30.15 in 10.0 mi SSW 9.2 mph - N/A   Clear
8:52 PM 82.0 °F 84.1 °F 66.0 °F 58% 30.16 in 10.0 mi SSW 6.9 mph - N/A   Clear
9:52 PM 81.0 °F 83.0 °F 66.0 °F 60% 30.17 in 10.0 mi SSW 10.4 mph - N/A   Clear
10:52 PM 80.1 °F 81.9 °F 64.9 °F 60% 30.17 in 10.0 mi SSW 6.9 mph - N/A   Clear
11:52 PM 79.0 °F - 64.0 °F 60% 30.16 in 10.0 mi SW 8.1 mph - N/A   Clear